User: anonymous
Location: Albany
(35.0000°S, 118.0000°E)
Time: 08:11:37
(UTC-04:00)
Language:

Radarsat Rocket - Orbit

View from above orbital plane
View from above orbital plane
View from above satellite
View from above satellite

Ground track
Ground track

The orbit data is extracted from the following two-line orbital elements,

1 23711U 95059B   14264.12505147 -.00000229  00000-0 -36703-3 0  7629
2 23711 100.4589 247.9228 0368608 063.5090 341.8025 13.12651242904587
Epoch (UTC): 21 September 2014 03:00:04
Eccentricity: 0.0368608
inclination: 100.4589°
perigee height: 933 km
apogee height: 1493 km
right ascension of ascending node: 247.9228°
argument of perigee: 63.5090°
revolutions per day: 13.12651242
mean anomaly at epoch: 341.8025°
orbit number at epoch: 90458

The dashed part of the orbit path shows where the satellite is in the earth's shadow,  

DLR